When you browse on this site, cookies collect data to enhance your experience and personalize the content and advertising you see.
Visit our Privacy Policy to learn more. By continuing to use the site, you agree to this use of cookies and data.
  • In Austria
  • List of Countries
  • For 7 days
  • Water Temperature
  • Weather Map
  • News
  • Weather Widgets
  • user-avatar
    Login

    Hourly Weather Soacha

    Today, 25 January, Saturday

    Time Temperature Precipitation Wind Pressure Humidity
    00:00 +12°C° 0.2 mm 0 mps 561 mmHg 93%
    01:00 +12°C° 0.2 mm 0 mps 561 mmHg 94%
    02:00 +12°C° 0.1 mm 0 mps 561 mmHg 94%
    03:00 +12°C° 0.1 mm 0 mps 560 mmHg 95%
    04:00 +12°C° 0.1 mm 0 mps 560 mmHg 95%
    05:00 +12°C° 0.1 mm 0 mps 561 mmHg 94%
    06:00 +12°C° 0.1 mm 0 mps 561 mmHg 94%
    07:00 +12°C° 0.1 mm 0 mps 562 mmHg 93%
    08:00 +14°C° 0.3 mm 0 mps 562 mmHg 89%
    09:00 +16°C° 0.3 mm 1 mps 563 mmHg 84%
    10:00 +19°C° 0.3 mm 1 mps 564 mmHg 79%
    11:00 +19°C° 1.2 mm 1 mps 564 mmHg 80%
    12:00 +19°C° 1.2 mm 1 mps 563 mmHg 81%
    13:00 +19°C° 1.2 mm 1 mps 562 mmHg 82%
    14:00 +19°C° 1.3 mm 1 mps 562 mmHg 83%
    15:00 +18°C° 1.3 mm 1 mps 561 mmHg 84%
    16:00 +18°C° 1.3 mm 1 mps 561 mmHg 85%
    17:00 +16°C° 0.8 mm 1 mps 560 mmHg 88%
    18:00 +15°C° 0.8 mm 1 mps 560 mmHg 91%
    19:00 +13°C° 0.8 mm 0 mps 560 mmHg 94%
    20:00 +13°C° 0.3 mm 0 mps 561 mmHg 93%
    21:00 +13°C° 0.3 mm 0 mps 561 mmHg 93%
    22:00 +13°C° 0.3 mm 0 mps 562 mmHg 92%
    23:00 +13°C° 0.3 mm 0 mps 561 mmHg 92%

    Tomorrow, 26 January, Sunday

    Time Temperature Precipitation Wind Pressure Humidity
    00:00 +13°C° 0.3 mm 0 mps 561 mmHg 92%
    01:00 +13°C° 0.3 mm 0 mps 561 mmHg 93%
    02:00 +13°C° 0.5 mm 0 mps 561 mmHg 93%
    03:00 +13°C° 0.5 mm 0 mps 560 mmHg 94%
    04:00 +12°C° 0.5 mm 0 mps 560 mmHg 94%
    05:00 +13°C° 0.5 mm 0 mps 560 mmHg 94%
    06:00 +13°C° 0.5 mm 0 mps 561 mmHg 94%
    07:00 +13°C° 0.5 mm 0 mps 561 mmHg 94%
    08:00 +13°C° 0.4 mm 0 mps 562 mmHg 92%
    09:00 +14°C° 0.4 mm 0 mps 562 mmHg 89%
    10:00 +16°C° 0.4 mm 1 mps 563 mmHg 87%
    11:00 +16°C° 0.8 mm 1 mps 563 mmHg 84%
    12:00 +18°C° 0.8 mm 1 mps 563 mmHg 81%
    13:00 +19°C° 0.8 mm 1 mps 562 mmHg 79%
    14:00 +19°C° 1.2 mm 1 mps 562 mmHg 81%
    15:00 +18°C° 1.2 mm 1 mps 561 mmHg 84%
    16:00 +16°C° 1.2 mm 1 mps 560 mmHg 87%
    17:00 +16°C° 1.2 mm 1 mps 560 mmHg 89%
    18:00 +15°C° 1.2 mm 1 mps 560 mmHg 91%
    19:00 +14°C° 1.2 mm 1 mps 560 mmHg 94%
    20:00 +14°C° 0.6 mm 1 mps 561 mmHg 92%
    21:00 +14°C° 0.6 mm 1 mps 561 mmHg 91%
    22:00 +14°C° 0.6 mm 1 mps 562 mmHg 90%
    23:00 +12°C° 0.3 mm 0 mps 561 mmHg 91%

    Day after tomorrow, 27 January, Monday

    Time Temperature Precipitation Wind Pressure Humidity
    00:00 +12°C° 0.3 mm 0 mps 561 mmHg 92%
    01:00 +12°C° 0.3 mm 0 mps 560 mmHg 92%
    02:00 +12°C° 0.5 mm 0 mps 560 mmHg 93%
    03:00 +12°C° 0.5 mm 0 mps 560 mmHg 93%
    04:00 +12°C° 0.5 mm 0 mps 560 mmHg 93%
    05:00 +12°C° 0.2 mm 0 mps 560 mmHg 93%
    06:00 +12°C° 0.2 mm 0 mps 561 mmHg 92%
    07:00 +12°C° 0.2 mm 0 mps 561 mmHg 92%
    08:00 +13°C° 0.5 mm 0 mps 562 mmHg 89%
    09:00 +15°C° 0.5 mm 1 mps 563 mmHg 86%
    10:00 +16°C° 0.5 mm 1 mps 563 mmHg 83%
    11:00 +18°C° 1.1 mm 1 mps 563 mmHg 82%
    12:00 +18°C° 1.1 mm 1 mps 563 mmHg 81%
    13:00 +19°C° 1.1 mm 1 mps 562 mmHg 80%
    14:00 +18°C° 1.1 mm 1 mps 562 mmHg 81%
    15:00 +18°C° 1.1 mm 1 mps 561 mmHg 82%
    16:00 +18°C° 1.1 mm 1 mps 561 mmHg 83%
    17:00 +16°C° 1.1 mm 1 mps 560 mmHg 86%
    18:00 +15°C° 1.1 mm 1 mps 560 mmHg 89%
    19:00 +14°C° 1.1 mm 1 mps 560 mmHg 93%
    20:00 +13°C° 0.5 mm 0 mps 561 mmHg 92%
    21:00 +13°C° 0.5 mm 0 mps 561 mmHg 91%
    22:00 +12°C° 0.5 mm 0 mps 561 mmHg 90%
    23:00 +12°C° 0.1 mm 0 mps 561 mmHg 90%

    28 January, Tuesday

    Time Temperature Precipitation Wind Pressure Humidity
    00:00 +12°C° 0.1 mm 0 mps 561 mmHg 90%
    01:00 +12°C° 0.1 mm 0 mps 560 mmHg 90%
    02:00 +12°C° 0.1 mm 0 mps 560 mmHg 90%
    03:00 +12°C° 0.1 mm 0 mps 560 mmHg 91%
    04:00 +11°C° 0.1 mm 0 mps 560 mmHg 92%
    05:00 +12°C° 0 mm 0 mps 560 mmHg 91%
    06:00 +12°C° 0 mm 0 mps 561 mmHg 91%
    07:00 +12°C° 0 mm 0 mps 561 mmHg 90%
    08:00 +14°C° 0 mm 0 mps 562 mmHg 84%
    09:00 +16°C° 0 mm 1 mps 563 mmHg 78%
    10:00 +19°C° 0 mm 1 mps 564 mmHg 71%
    11:00 +18°C° 0.3 mm 2 mps 563 mmHg 72%
    12:00 +18°C° 0.3 mm 2 mps 563 mmHg 73%
    13:00 +18°C° 0.3 mm 2 mps 562 mmHg 73%
    14:00 +18°C° 0.5 mm 2 mps 561 mmHg 77%
    15:00 +18°C° 0.5 mm 1 mps 561 mmHg 81%
    16:00 +16°C° 0.5 mm 1 mps 560 mmHg 84%
    17:00 +16°C° 0.3 mm 1 mps 560 mmHg 87%
    18:00 +15°C° 0.3 mm 1 mps 560 mmHg 90%
    19:00 +13°C° 0.3 mm 0 mps 560 mmHg 93%
    20:00 +13°C° 0.2 mm 0 mps 560 mmHg 93%
    21:00 +12°C° 0.2 mm 0 mps 560 mmHg 93%
    22:00 +12°C° 0.2 mm 0 mps 560 mmHg 93%
    23:00 +12°C° 0.1 mm 0 mps 560 mmHg 93%

    29 January, Wednesday

    Time Temperature Precipitation Wind Pressure Humidity
    00:00 +11°C° 0.1 mm 0 mps 560 mmHg 92%
    01:00 +11°C° 0.1 mm 0 mps 560 mmHg 92%
    02:00 +11°C° 0.1 mm 0 mps 559 mmHg 93%
    03:00 +11°C° 0.1 mm 0 mps 559 mmHg 93%
    04:00 +11°C° 0.1 mm 0 mps 559 mmHg 93%
    05:00 +11°C° 0 mm 0 mps 560 mmHg 92%
    06:00 +11°C° 0 mm 0 mps 560 mmHg 91%
    07:00 +12°C° 0 mm 0 mps 561 mmHg 89%
    08:00 +13°C° 0.1 mm 0 mps 562 mmHg 84%
    09:00 +16°C° 0.1 mm 1 mps 562 mmHg 79%
    10:00 +18°C° 0.1 mm 1 mps 563 mmHg 73%
    11:00 +19°C° 0.4 mm 1 mps 563 mmHg 74%
    12:00 +18°C° 0.4 mm 2 mps 562 mmHg 75%
    13:00 +18°C° 0.4 mm 2 mps 562 mmHg 76%
    14:00 +17°C° 0.6 mm 2 mps 561 mmHg 79%
    15:00 +18°C° 0.6 mm 1 mps 560 mmHg 82%
    16:00 +16°C° 0.6 mm 1 mps 560 mmHg 85%
    17:00 +15°C° 0.4 mm 1 mps 560 mmHg 88%
    18:00 +15°C° 0.4 mm 1 mps 560 mmHg 90%
    19:00 +13°C° 0.4 mm 0 mps 560 mmHg 93%
    20:00 +13°C° 0.2 mm 0 mps 560 mmHg 92%
    21:00 +12°C° 0.2 mm 0 mps 560 mmHg 92%
    22:00 +13°C° 0.2 mm 1 mps 560 mmHg 91%
    23:00 +13°C° 0.2 mm 1 mps 560 mmHg 91%

    30 January, Thursday

    Time Temperature Precipitation Wind Pressure Humidity
    00:00 +12°C° 0.2 mm 0 mps 560 mmHg 90%
    01:00 +12°C° 0.2 mm 0 mps 560 mmHg 90%
    02:00 +12°C° 0.2 mm 0 mps 559 mmHg 90%
    03:00 +11°C° 0.2 mm 0 mps 559 mmHg 91%
    04:00 +11°C° 0.2 mm 0 mps 559 mmHg 91%
    05:00 +12°C° 0.2 mm 0 mps 560 mmHg 90%
    06:00 +12°C° 0.2 mm 0 mps 560 mmHg 90%
    07:00 +12°C° 0.2 mm 0 mps 561 mmHg 89%
    08:00 +13°C° 0.2 mm 0 mps 561 mmHg 84%
    09:00 +16°C° 0.2 mm 1 mps 562 mmHg 78%
    10:00 +18°C° 0.2 mm 1 mps 563 mmHg 73%
    11:00 +19°C° 0.4 mm 1 mps 563 mmHg 73%
    12:00 +18°C° 0.4 mm 2 mps 562 mmHg 73%
    13:00 +18°C° 0.4 mm 2 mps 562 mmHg 73%
    14:00 +18°C° 0.7 mm 2 mps 561 mmHg 75%
    15:00 +18°C° 0.7 mm 1 mps 561 mmHg 77%
    16:00 +18°C° 0.7 mm 1 mps 560 mmHg 79%
    17:00 +16°C° 0.6 mm 1 mps 560 mmHg 83%
    18:00 +15°C° 0.6 mm 1 mps 560 mmHg 87%
    19:00 +13°C° 0.6 mm 1 mps 559 mmHg 90%
    20:00 +13°C° 0.2 mm 1 mps 560 mmHg 89%
    21:00 +13°C° 0.2 mm 1 mps 560 mmHg 89%
    22:00 +12°C° 0.2 mm 1 mps 560 mmHg 88%
    23:00 +12°C° 0 mm 1 mps 559 mmHg 87%
    Show more